Warning: Javascript must be enabled to use all the features on this page!


Page Loading - Please Wait...

Click to hideNews Bulletins

Peak Streamflow for Idaho

Click to hide state-specific text

USGS 13055000 TETON RIVER NR ST ANTHONY ID

Fremont County, Idaho
Hydrologic Unit Code 17040204
Latitude  43°55'38", Longitude 111°36'50" NAD83
Drainage area 876  square miles
Gage datum 4,973.5 feet above NAVD88
Output formats
Table
Graph
Tab-separated file
peakfq (watstore) format
Reselect output format
Water
Year
Date Gage
Height
(feet)
Stream-
flow
(cfs)
1890 1890-05-29   4,4401
1891 1891-05-08   2,3601
1892 1892-06-21   5,4101
1893 1893-06-13   5,8301
1903 1903-06-09   3,0801,5
1904 1904-05-24   3,9501,5
1905 1905-06-03   1,7601,5
1906 1906-06-14   3,3001,5
1907 1907-05-20   3,0401,5
1908 1908-06-17   4,2501,5
1909 1909-06-05   5,2301,5
1920 1920-06-12   3,0401,5
1921 1921-06-13 5.923 4,3905
1922 1922-05-26 4.403 3,3005
1923 1923-05-26 4.573 3,4105
1924 1924-05-18 2.263 1,5805
1925 1925-05-21 5.553 4,2305
1926 1926-05-06 3.313 2,3705
1927 1927-06-14 5.643 4,1005
1928 1928-05-13 5.943 4,3505
1929 1929-05-25 4.433 3,2205
1930 1930-04-03 2.553 1,780
1931 1931-05-16 1.703 1,2605
1932 1932-06-17   3,3901,5
1933 1933-06-15   2,5601,5
1934 1934-05-07 3.123,6 8625
1935 1935-06-14 5.203 2,5405
1936 1936-05-15 6.783 3,9905
1937 1937-05-19 4.533 2,0205
1938 1938-04-19 6.803 3,9405
1939 1939-05-18 4.833 2,2705
1940 1940-05-14 4.543 2,0405
1941 1941-05-28 4.943 2,3905
1942 1942-06-10 6.223 3,5505
1943 1943-05-30 5.893 3,2805
1944 1944-06-28 5.333 2,8305
1945 1945-06-09 5.843 3,2705
1946 1946-04-27 4.753 2,3205
1947 1947-05-09 5.213 2,6805
1948 1948-05-29 6.223 3,5605
1949 1949-05-17 6.363 3,6605
1950 1950-04-02 6.663 4,010
1951 1951-05-29 6.033 3,4905
1952 1952-05-05 5.563 3,1805
1953 1953-06-19 5.833 3,2705
1954 1954-05-22 5.313 2,9505
1955 1955-06-13 4.483 2,0705
1956 1956-06-02 6.543 3,7905
1957 1957-06-06 7.033 4,6605
1958 1958-05-24 6.133 3,6805
1959 1959-04-03 6.283 3,7905
1960 1960-05-13 4.653 2,3005
1961 1961-05-27 4.653 2,1305
1962 1962-02-12 9.363 11,000
1963 1963-02-03 8.703 7,280
1964 1964-06-19 7.203 5,0005
1965 1965-06-12 5.543 3,0805
1966 1966-05-11 5.003 2,5105
1967 1967-06-23 6.623 4,1505
1968 1968-06-14 6.353 3,5605
1969 1969-05-13 4.943 2,4405
1970 1970-06-10 6.843 4,2105
1971 1971-06-24 7.163 4,6305
1972 1972-06-10 6.843 4,1105
1973 1973-05-21 5.893 3,1805
1974 1974-06-21 7.133 4,5805
1975 1975-07-07 6.893 4,2105
1976 1976-06-05 42.203 1,700,0003
1978 1978-06-10 6.09 3,6505
1979 1979-05-28 6.02 3,4705
1980 1980-05-24 5.57 3,0105
1981 1981-06-09 6.54 5,0605
1982 1982-06-26 6.32 4,2405
1983 1983-05-30 6.70 5,5005
1984 1984-05-16 6.41 5,1005
1985 1985-05-11 4.95 3,0005
1986 1986-06-03 5.78 5,5505
1987 1987-05-29 4.54 2,7705
1988 1988-05-17 4.26 2,3805
1989 1989-05-11 4.98 3,8405
1990 1990-06-12 4.57 2,6605
1991 1991-06-06   3,6401,5
1992 1992-04-30 3.672 1,5305
1993 1993-05-22 6.11 4,9605
1994 1994-05-14 4.44 2,3605
1995 1995-06-15 5.75 4,6805
1996 1996-05-17 6.51 5,7805
1997 1997-06-11 6.78 6,3605
1998 1998-06-27   3,7001,5
1999 1999-05-31   4,6201,5
2000 2000-05-27   2,6601,5
2001 2001-05-17   2,2501,5
2002 2002-06-03   3,3401,5
2003 2003-05-30 5.14 3,4905
2004 2004-06-10 4.46 2,5705
2005 2005-05-22 4.86 3,0905
2006 2006-05-20 5.98 4,8405
2007 2007-05-14 3.96 1,9905
2008 2008-05-21 5.61 4,2205
2009 2009-06-22   4,0801,5
2010 2010-06-07 6.72 6,2105
2011 2011-06-14 6.61 5,9805
2012 2012-06-05 5.18 3,3205
2013 2013-05-15 4.86 2,8405
2014 2014-05-28 5.51 3,8505
2015 2015-06-02 4.79 2,7505
2016 2016-06-08 4.76 2,7105
2017 2017-05-13 5.74 4,2805
2018 2018-05-24 5.90 4,5405
2019 2019-06-08 5.36 3,6005
2020 2020-06-01 5.79 4,4405
?
  Peak Gage-Height Qualification Codes.
?
  Peak Streamflow Qualification Codes.